Tracking 27124 objects as of 31-Mar-2023
HD Live streaming from Space Station
objects crossing your sky now

COSMOS 249 DEB

Track COSMOS 249 DEB now!
10-day predictions


NORAD ID: 19317
Int'l Code: 1968-091DH
Perigee: 513.6 km
Apogee: 1,731.6 km
Inclination: 62.8 °
Period: 107.6 minutes
Semi major axis: 7493 km
RCS: 0.0014 m2 (small)
Launch date: October 20, 1968
Source: Commonwealth of Independent States (former USSR) (CIS)
Launch site: TYURATAM MISSILE AND SPACE COMPLEX (TTMTR)

Note: This is SATELLITE DEBRIS
Your satellite tracking list
Your tracking list is empty




NASA's NSSDC Master Catalog

Two Line Element Set (TLE):
1 19317U 68091DH  23089.82017977  .00002072  00000-0  55065-3 0  9993
2 19317  62.8291 131.3051 0812658  80.9901 288.2105 13.38343287703022
Source of the keplerian elements: AFSPC